Find Starlink 30039

NORAD ID: 57468 Int'l Des: 2023-107 Owner: SPXS Country: US Constellation: starlink operational
LEOCIRCULAR

現在のビュー

3D地球を読み込み中...

About Starlink 30039

Starlink 30039 (NORAD 57468) is a starlink constellation satellite (v2 mini) launched Jul 28, 2023 by SPXS of US. It operates in LEO, CIRCULAR orbit with a mass of 730.00 kg.

Starlink 30039について

説明を読み込み中...

次回通過

Passes for default location (London). Set your location on the main map for personalized predictions.

高度履歴

Loading altitude history...

軌道要素

1 57468U 23107M 26175.06812764 .00000230 00000-0 17888-4 0 9999
2 57468 43.0022 95.5618 0001225 266.5744 93.4967 15.27573189161410
Epoch: Jun 24, 2026 • Age: 13 hours

現在のステータス

高度 484.7 km
速度 7.62 km/s
衛星直下点 -11.00°S, 145.93°E
打ち上げ日 Jul 28, 2023
運用期間 2.9 years
タイプ internet

技術仕様

分類 Payload
質量 730.00 kg
乾燥質量 700.00 kg
総質量 730.00 kg
長さ 0.30 m
直径 4.10 m
スパン 29.00 m
形状 Box + pan
製造者 SPXS
バスタイプ Starlink V2M
フェーズステータス In Orbit
所有者/国 SPXS/US

Most Searched